Location: Neuvy Saint Sepulchre
(46.5953°N, 1.8122°E)
Time: 15:58:53
(UTC+02:00)

ISS - Pass Details

Date: 03 May 2026
Orbit: 414 x 424 km, 51.6° (Epoch: 21 May)

Event Time Altitude Azimuth Distance (km) Brightness Sun altitude
Exits shadow 04:49:52 - 297° (WNW) 1,756 -0.8 -15.8°
Reaches altitude 10° 04:50:32 10° 300° (WNW) 1,499 -1.1 -15.7°
Maximum altitude 04:53:42 38° 11° (N) 659 -2.3 -15.3°
Drops below altitude 10° 04:56:53 10° 81° (E) 1,503 -0.1 -14.9°
Sets 04:59:05 0° 90° (E) 2,368 0.8 -14.6°
